Regional Weather Roundup
Issued by NWS Bismarck, ND

Home | Current Version | Previous Version | Text Only | Print | Product List | Glossary On
Versions: 1 2 3 4 5 6 7 8 9 10 11 12 13 14 15 16 17 18 19 20 21 22 23 24 25 26 27 28 29 30 31 32 33 34 35 36 37 38 39 40 41 42 43 44 45 46 47 48 49 50
218
ASUS43 KBIS 210210
RWRBIS

NWR BROADCAST TEXT
NATIONAL WEATHER SERVICE BISMARCK ND
800 PM CST MON FEB 20 2017

NOTE: "FAIR" INDICATES FEW OR NO CLOUDS BELOW 12,000 FEET WITH NO
SIGNIFICANT WEATHER AND/OR OBSTRUCTIONS TO VISIBILITY.


CITY           SKY/WX    TMP DP  RH WIND       PRES   REMARKS
WILLISTON      FAIR      34  27  75 CALM      29.67F
MINOT          FAIR      38  33  82 SW9       29.70R
MINOT AFB      FAIR      35  31  85 W12       29.69R
BISMARCK       FAIR      38  32  79 CALM      29.77R
DICKINSON      FAIR      35  25  66 S6        29.69F
GARRISON         N/A     34  30  85 CALM      29.72R
HETTINGER ARPT FAIR      39  26  59 SE5       29.74F
JAMESTOWN      FAIR      37  33  85 SW5       29.74R
CARRINGTON     FAIR      34  32  93 W12       29.75R
HAZEN            N/A    N/A N/A N/A SE5       29.75F
MANDAN         FAIR      37  30  75 SW7       29.77R
RUGBY            N/A     32  32 100 W7        29.69S
STANLEY        FAIR      34  34 100 S3        29.72S
TIOGA          FAIR      32  32 100 E5        29.70F
WATFORD CITY   FAIR      37  28  70 SE9       29.68F
$$

CITY           SKY/WX    TMP DP  RH WIND       PRES   REMARKS
GRAND FORKS    FAIR      34  30  85 W7        29.70R
GRAND FORKS AF FAIR      33  33  99 W7        29.70S
DEVILS LAKE    FAIR      32  32 100 SW3       29.71R FOG
FARGO          FAIR      35  33  92 W8        29.75R
CAVALIER         N/A     32  32 100 W7        29.68S
GRAFTON        FAIR      32  32 100 SW10      29.71S
GWINNER        FAIR      36  36 100 W12       29.78R
ROLLA          FAIR      32  32 100 SW3       29.67R
$$

CITY           SKY/WX    TMP DP  RH WIND       PRES   REMARKS
ABERDEEN       FAIR      35  31  85 CALM      29.81R
MOBRIDGE       FAIR      38  31  76 SE5       29.77R
BUFFALO          N/A     47  25  42 SE12      29.65F
RAPID CITY     FAIR      49  24  37 S7        29.79F
GLASGOW        MOCLDY    40  30  67 SE12      29.60R
SIDNEY         FAIR      42  29  59 N5        29.66F
WOLF POINT     MOCLDY    38  30  73 NE8       29.63S
GLENDIVE       MOCLDY    45  28  51 S6        29.66F
MILES CITY     FAIR      49  28  44 SE7       29.65R
BAKER          FAIR      37  29  72 SE5       29.69S
$$

CITY           SKY/WX    TMP DP  RH WIND       PRES   REMARKS
BILLINGS       MOCLDY    53  30  41 SW16G26   29.64R
GREAT FALLS    FAIR      34  29  82 SW9       29.60R
REGINA         PTCLDY    32  30  93 SE5       29.65R
ESTEVAN        PTCLDY    32  30  93 SW6       29.67R
$$





USA.gov is the U.S. government's official web portal to all federal, state and local government web resources and services.